�������l�o���
Date,Time,MP-1(��Sv/h),MP-2(��Sv/h),MP-3(��Sv/h),MP-4(��Sv/h),MP-5(��Sv/h),MP-6(��Sv/h),MP-7(��Sv/h),MP-8(��Sv/h),����,����(m/s),���J
2023/11/26,00:00,0.522,0.793,0.489,0.995,0.712,0.315,0.566,0.528,�k��,5.0,��
2023/11/26,00:10,0.521,0.793,0.490,0.996,0.713,0.314,0.565,0.528,�k��,3.8,��
2023/11/26,00:20,0.520,0.793,0.488,0.995,0.711,0.315,0.566,0.527,�k��,5.3,��
2023/11/26,00:30,0.521,0.796,0.489,0.997,0.712,0.314,0.565,0.527,�k��,7.0,��
2023/11/26,00:40,0.521,0.793,0.489,0.997,0.713,0.314,0.566,0.528,�k��,7.2,��
2023/11/26,00:50,0.521,0.793,0.489,0.995,0.713,0.315,0.566,0.527,�k�k��,6.1,��
2023/11/26,01:00,0.520,0.795,0.488,0.995,0.714,0.315,0.566,0.526,�k��,5.6,��
2023/11/26,01:10,0.521,0.796,0.489,0.995,0.713,0.315,0.566,0.525,�k��,6.1,��
2023/11/26,01:20,0.522,0.796,0.488,0.997,0.712,0.314,0.566,0.527,�k��,5.9,��
2023/11/26,01:30,0.521,0.794,0.489,0.997,0.712,0.313,0.565,0.527,�k��,8.1,��
2023/11/26,01:40,0.520,0.794,0.488,0.996,0.712,0.314,0.566,0.528,�k��,7.7,��
2023/11/26,01:50,0.523,0.792,0.488,0.994,0.713,0.314,0.565,0.528,�k��,7.3,��
2023/11/26,02:00,0.520,0.794,0.487,0.996,0.712,0.314,0.565,0.525,�k��,6.9,��
2023/11/26,02:10,0.521,0.793,0.488,0.997,0.710,0.314,0.564,0.527,�k��,5.6,��
2023/11/26,02:20,0.522,0.793,0.489,0.996,0.712,0.314,0.567,0.527,�k��,4.2,��
2023/11/26,02:30,0.523,0.794,0.488,0.997,0.714,0.314,0.566,0.526,���k��,5.5,��
2023/11/26,02:40,0.520,0.793,0.489,0.995,0.713,0.314,0.566,0.527,���k��,5.8,��
2023/11/26,02:50,0.522,0.793,0.489,0.996,0.711,0.315,0.565,0.526,���k��,4.9,��
2023/11/26,03:00,0.520,0.793,0.488,0.995,0.712,0.314,0.564,0.526,�k��,4.8,��
2023/11/26,03:10,0.520,0.795,0.487,0.996,0.712,0.314,0.565,0.527,�k��,5.0,��
2023/11/26,03:20,0.521,0.794,0.489,0.996,0.712,0.315,0.566,0.526,���k��,3.6,��
2023/11/26,03:30,0.521,0.795,0.489,0.995,0.713,0.314,0.566,0.527,���k��,2.8,��
2023/11/26,03:40,0.521,0.794,0.488,0.994,0.712,0.316,0.567,0.526,���k��,3.9,��
2023/11/26,03:50,0.521,0.795,0.489,0.996,0.713,0.314,0.566,0.527,���k��,5.0,��
2023/11/26,04:00,0.520,0.793,0.489,0.995,0.713,0.315,0.566,0.529,���k��,5.5,��
2023/11/26,04:10,0.520,0.797,0.489,0.997,0.712,0.313,0.564,0.527,�k��,4.1,��
2023/11/26,04:20,0.520,0.793,0.487,0.994,0.713,0.315,0.566,0.525,�k��,2.8,��
2023/11/26,04:30,0.521,0.792,0.489,0.996,0.712,0.314,0.566,0.528,���k��,3.4,��
2023/11/26,04:40,0.520,0.794,0.488,0.994,0.713,0.314,0.566,0.527,���k��,3.0,��
2023/11/26,04:50,0.520,0.793,0.487,0.995,0.710,0.314,0.564,0.526,���k��,3.9,��
2023/11/26,05:00,0.521,0.792,0.488,0.996,0.713,0.313,0.565,0.527,���k��,3.2,��
2023/11/26,05:10,0.519,0.794,0.488,0.996,0.713,0.314,0.564,0.527,���k��,3.6,��
2023/11/26,05:20,0.519,0.792,0.488,0.994,0.713,0.314,0.566,0.527,���k��,3.9,��
2023/11/26,05:30,0.521,0.794,0.487,0.995,0.713,0.315,0.565,0.526,���k��,4.0,��
2023/11/26,05:40,0.519,0.792,0.489,0.994,0.712,0.314,0.565,0.527,���k��,5.2,��
2023/11/26,05:50,0.519,0.792,0.489,0.994,0.713,0.315,0.564,0.527,��,5.1,��
2023/11/26,06:00,0.520,0.793,0.487,0.995,0.712,0.313,0.565,0.527,���k��,5.8,��
2023/11/26,06:10,0.518,0.792,0.487,0.996,0.712,0.315,0.564,0.527,���k��,6.2,��
2023/11/26,06:20,0.519,0.794,0.488,0.994,0.712,0.314,0.565,0.528,��,6.2,��
2023/11/26,06:30,0.521,0.794,0.489,0.996,0.713,0.312,0.568,0.526,���k��,5.3,��
2023/11/26,06:40,0.521,0.794,0.491,0.997,0.714,0.314,0.565,0.528,���k��,4.5,��
2023/11/26,06:50,0.522,0.792,0.489,0.994,0.712,0.313,0.566,0.528,��,4.9,��
2023/11/26,07:00,0.519,0.794,0.488,0.994,0.713,0.312,0.563,0.528,��,3.8,��
2023/11/26,07:10,0.520,0.794,0.489,0.996,0.714,0.314,0.565,0.528,���k��,2.9,��
2023/11/26,07:20,0.521,0.792,0.489,0.995,0.712,0.314,0.565,0.527,���k��,2.0,��
2023/11/26,07:30,0.521,0.793,0.489,0.995,0.712,0.313,0.565,0.528,��,2.0,��
2023/11/26,07:40,0.520,0.793,0.489,0.997,0.712,0.315,0.565,0.528,���k��,1.5,��
2023/11/26,07:50,0.521,0.794,0.489,0.996,0.712,0.314,0.566,0.527,�k��,0.9,��
2023/11/26,08:00,0.522,0.793,0.488,0.994,0.713,0.313,0.567,0.529,-,CALM,��
2023/11/26,08:10,0.521,0.794,0.488,0.996,0.712,0.314,0.568,0.528,�k��,1.2,��
2023/11/26,08:20,0.520,0.794,0.489,0.994,0.713,0.315,0.566,0.528,�k,2.0,��
2023/11/26,08:30,0.522,0.793,0.488,0.997,0.713,0.313,0.566,0.527,�k,2.8,��
2023/11/26,08:40,0.522,0.796,0.490,0.995,0.712,0.315,0.566,0.528,�k�k��,3.8,��
2023/11/26,08:50,0.522,0.796,0.489,0.996,0.713,0.314,0.565,0.528,�k�k��,2.6,��
2023/11/26,09:00,0.519,0.794,0.491,0.996,0.712,0.316,0.564,0.528,�k�k��,2.3,��
2023/11/26,09:10,0.521,0.794,0.488,0.997,0.713,0.315,0.565,0.528,�k��,1.7,��
2023/11/26,09:20,0.521,0.795,0.489,0.997,0.713,0.316,0.565,0.529,�k��,2.0,��
2023/11/26,09:30,0.522,0.795,0.491,0.996,0.714,0.315,0.565,0.528,�k��,2.0,��
2023/11/26,09:40,0.523,0.795,0.490,0.997,0.714,0.314,0.565,0.528,���k��,1.5,��
2023/11/26,09:50,0.521,0.797,0.489,0.996,0.714,0.315,0.564,0.528,�k�k��,1.5,��
2023/11/26,10:00,0.521,0.795,0.490,0.997,0.715,0.315,0.565,0.528,�k��,1.2,��
2023/11/26,10:10,0.521,0.795,0.489,0.996,0.715,0.314,0.564,0.528,�k�k��,1.5,��
2023/11/26,10:20,0.522,0.796,0.489,0.999,0.713,0.314,0.567,0.528,�k�k��,1.2,��
2023/11/26,10:30,0.522,0.796,0.491,0.997,0.715,0.315,0.566,0.528,���k��,0.8,��
2023/11/26,10:40,0.522,0.796,0.490,0.995,0.715,0.316,0.567,0.527,�k��,0.6,��
2023/11/26,10:50,0.523,0.796,0.489,0.998,0.713,0.314,0.565,0.528,��,1.4,��
2023/11/26,11:00,0.523,0.796,0.491,0.995,0.714,0.315,0.565,0.527,�k�k��,0.6,��
2023/11/26,11:10,0.522,0.797,0.490,0.998,0.715,0.316,0.566,0.528,-,CALM,��
2023/11/26,11:20,0.521,0.796,0.490,0.995,0.714,0.315,0.565,0.529,��,1.2,��
2023/11/26,11:30,0.522,0.797,0.490,0.996,0.715,0.316,0.567,0.529,��,1.2,��
2023/11/26,11:40,0.523,0.796,0.489,0.995,0.715,0.316,0.565,0.529,���쓌,0.9,��
2023/11/26,11:50,0.521,0.795,0.491,0.998,0.715,0.316,0.567,0.529,�k�k��,1.4,��
2023/11/26,12:00,0.522,0.796,0.490,0.997,0.715,0.316,0.566,0.528,���k��,1.5,��
2023/11/26,12:10,0.523,0.795,0.491,0.997,0.715,0.317,0.566,0.529,�k��,1.9,��
2023/11/26,12:20,0.523,0.797,0.491,0.998,0.715,0.315,0.565,0.528,�k��,1.5,��
2023/11/26,12:30,0.522,0.796,0.491,0.997,0.715,0.315,0.564,0.529,���k��,1.5,��
2023/11/26,12:40,0.523,0.797,0.492,0.996,0.714,0.315,0.566,0.528,���k��,1.2,��
2023/11/26,12:50,0.523,0.798,0.492,0.997,0.713,0.315,0.565,0.529,�k�k��,1.5,��
2023/11/26,13:00,0.524,0.796,0.492,0.997,0.713,0.315,0.565,0.530,�쓌,1.5,��
2023/11/26,13:10,0.524,0.797,0.492,0.997,0.715,0.316,0.565,0.529,���쓌,0.9,��
2023/11/26,13:20,0.523,0.798,0.493,0.997,0.716,0.316,0.564,0.529,���쓌,1.4,��
2023/11/26,13:30,0.525,0.795,0.491,0.994,0.715,0.316,0.564,0.530,��,0.8,��
2023/11/26,13:40,0.523,0.798,0.491,0.997,0.715,0.315,0.565,0.529,��,0.9,��
2023/11/26,13:50,0.522,0.797,0.493,0.999,0.714,0.315,0.565,0.530,�k��,0.9,��
2023/11/26,14:00,0.525,0.797,0.491,0.996,0.716,0.317,0.565,0.530,�k,1.2,�L
2023/11/26,14:10,0.523,0.796,0.490,0.998,0.717,0.316,0.565,0.530,�k�k��,1.4,��
2023/11/26,14:20,0.524,0.798,0.491,0.997,0.715,0.316,0.565,0.531,�k,1.2,��
2023/11/26,14:30,0.523,0.798,0.490,0.996,0.716,0.317,0.564,0.529,�k,1.7,��
2023/11/26,14:40,0.522,0.797,0.491,0.998,0.715,0.316,0.564,0.530,�k�k��,2.2,�L
2023/11/26,14:50,0.523,0.798,0.491,0.997,0.715,0.315,0.564,0.528,�k�k��,1.5,�L
2023/11/26,15:00,0.525,0.797,0.490,0.997,0.715,0.316,0.566,0.528,�k,1.4,��
2023/11/26,15:10,0.523,0.797,0.491,0.998,0.716,0.315,0.566,0.529,�k�k��,1.5,��
2023/11/26,15:20,0.522,0.797,0.491,0.997,0.716,0.317,0.565,0.529,�k�k��,1.2,��
2023/11/26,15:30,0.524,0.796,0.490,0.997,0.716,0.316,0.566,0.529,�k�k��,1.1,��
2023/11/26,15:40,0.524,0.798,0.493,0.998,0.713,0.316,0.563,0.529,�k�k��,1.4,��
2023/11/26,15:50,0.523,0.796,0.490,0.998,0.717,0.315,0.566,0.529,�k��,1.2,��
2023/11/26,16:00,0.524,0.797,0.493,0.995,0.714,0.316,0.564,0.528,�k��,1.4,��
2023/11/26,16:10,0.523,0.795,0.492,0.996,0.715,0.316,0.566,0.530,���k��,1.7,��
2023/11/26,16:20,0.523,0.799,0.491,0.997,0.715,0.317,0.565,0.530,��,1.5,��
2023/11/26,16:30,0.522,0.797,0.490,0.999,0.714,0.316,0.566,0.528,���쐼,1.5,��
2023/11/26,16:40,0.523,0.795,0.491,0.998,0.714,0.317,0.564,0.530,��,1.9,��
2023/11/26,16:50,0.522,0.796,0.489,0.996,0.714,0.317,0.565,0.529,��,2.3,��
2023/11/26,17:00,0.522,0.797,0.491,0.996,0.715,0.316,0.565,0.529,��,1.9,��
2023/11/26,17:10,0.523,0.797,0.492,0.999,0.716,0.316,0.567,0.529,���쐼,1.5,��
2023/11/26,17:20,0.523,0.797,0.493,0.997,0.716,0.317,0.566,0.528,��,2.2,��
2023/11/26,17:30,0.523,0.794,0.493,0.999,0.714,0.314,0.564,0.529,��,1.9,��
2023/11/26,17:40,0.523,0.798,0.491,0.998,0.716,0.315,0.566,0.529,���쐼,1.7,��
2023/11/26,17:50,0.522,0.796,0.490,0.997,0.717,0.315,0.566,0.529,��,2.3,��
2023/11/26,18:00,0.523,0.796,0.492,1.000,0.715,0.314,0.566,0.529,���쐼,2.6,��
2023/11/26,18:10,0.523,0.795,0.493,0.995,0.714,0.317,0.567,0.530,�쐼,2.6,��
2023/11/26,18:20,0.524,0.797,0.492,0.997,0.717,0.316,0.565,0.528,���쐼,2.6,��
2023/11/26,18:30,0.522,0.796,0.491,0.999,0.716,0.317,0.566,0.527,�쐼,2.6,��
2023/11/26,18:40,0.524,0.797,0.492,1.000,0.716,0.315,0.566,0.530,���쐼,2.3,��
2023/11/26,18:50,0.524,0.795,0.492,0.996,0.715,0.317,0.565,0.529,���쐼,1.9,��
2023/11/26,19:00,0.524,0.798,0.492,1.001,0.715,0.314,0.567,0.529,���쐼,2.0,��
2023/11/26,19:10,0.526,0.798,0.493,0.998,0.716,0.316,0.567,0.529,�쐼,1.7,��
2023/11/26,19:20,0.522,0.797,0.492,0.999,0.717,0.315,0.567,0.529,�쐼,2.0,��
2023/11/26,19:30,0.525,0.798,0.493,0.998,0.715,0.315,0.565,0.529,��쐼,2.3,��
2023/11/26,19:40,0.524,0.796,0.491,1.000,0.714,0.317,0.566,0.529,��쐼,2.5,��
2023/11/26,19:50,0.523,0.797,0.491,0.998,0.717,0.317,0.566,0.528,�쐼,2.6,��
2023/11/26,20:00,0.523,0.797,0.491,0.998,0.716,0.316,0.567,0.529,��쐼,2.3,��
2023/11/26,20:10,0.524,0.797,0.491,0.999,0.717,0.317,0.565,0.528,��,2.2,��
2023/11/26,20:20,0.523,0.798,0.491,0.999,0.716,0.317,0.567,0.531,��쐼,2.5,��
2023/11/26,20:30,0.524,0.797,0.491,0.999,0.718,0.316,0.566,0.529,��쐼,2.8,��
2023/11/26,20:40,0.525,0.799,0.491,1.000,0.716,0.317,0.568,0.529,��,3.0,��
2023/11/26,20:50,0.522,0.795,0.492,0.998,0.715,0.316,0.566,0.530,��,3.5,��
2023/11/26,21:00,0.523,0.797,0.493,1.000,0.717,0.316,0.566,0.528,��,2.6,��
2023/11/26,21:10,0.525,0.796,0.493,1.001,0.716,0.317,0.566,0.530,��쐼,2.6,��
2023/11/26,21:20,0.524,0.796,0.493,0.999,0.717,0.317,0.568,0.528,��,2.5,��
2023/11/26,21:30,0.523,0.796,0.492,0.999,0.715,0.317,0.567,0.529,��,3.6,��
2023/11/26,21:40,0.523,0.797,0.493,0.999,0.716,0.318,0.567,0.530,��,4.0,��
2023/11/26,21:50,0.524,0.797,0.493,0.996,0.715,0.317,0.568,0.528,��,3.9,��
2023/11/26,22:00,0.524,0.798,0.492,0.999,0.713,0.317,0.568,0.531,��,3.9,��
2023/11/26,22:10,0.525,0.796,0.491,0.998,0.716,0.317,0.566,0.531,��,4.1,��
2023/11/26,22:20,0.523,0.797,0.492,1.000,0.714,0.318,0.566,0.529,��쐼,4.1,��
2023/11/26,22:30,0.523,0.797,0.493,1.000,0.716,0.317,0.566,0.530,��,5.0,��
2023/11/26,22:40,0.526,0.797,0.493,1.000,0.715,0.317,0.567,0.530,��,5.0,��
2023/11/26,22:50,0.525,0.799,0.493,1.000,0.716,0.317,0.567,0.529,��,5.6,��
2023/11/26,23:00,0.523,0.799,0.493,1.000,0.716,0.316,0.568,0.530,��,5.4,��
2023/11/26,23:10,0.525,0.796,0.492,0.999,0.716,0.316,0.566,0.531,��,4.8,��
2023/11/26,23:20,0.524,0.799,0.492,1.000,0.715,0.318,0.566,0.530,��,3.3,��
2023/11/26,23:30,0.523,0.796,0.492,0.999,0.716,0.317,0.567,0.530,��,3.5,��
2023/11/26,23:40,0.524,0.798,0.493,0.997,0.717,0.317,0.566,0.530,��,4.5,��
2023/11/26,23:50,0.523,0.799,0.492,0.997,0.717,0.318,0.566,0.529,��,4.2,��
